Regional Weather Roundup
Issued by NWS

Home | Current Version | Previous Version | Text Only | Print | Product List | Glossary On
Versions: 1 2 3 4 5 6 7 8 9 10 11 12 13 14 15 16 17 18 19 20 21 22 23 24 25 26 27 28 29 30 31 32 33 34 35 36 37 38 39 40 41 42 43 44 45 46 47 48 49 50
000
ASUS43 KMKX 220920
RWRWI

WISCONSIN REGIONAL WEATHER ROUNDUP
NATIONAL WEATHER SERVICE MILWAUKEE/SULLIVAN WI
300 AM CST THU FEB 22 2018

NOTE: "FAIR" INDICATES FEW OR NO CLOUDS BELOW 12,000 FEET WITH NO
SIGNIFICANT WEATHER AND/OR OBSTRUCTIONS TO VISIBILITY.

WIZ001-002-006>008-014>016-023>028-221000-
NORTHWEST WISCONSIN

CITY           SKY/WX    TMP DP  RH WIND       PRES   REMARKS
SUPERIOR ARPT  FAIR      -4  -7  87 SW3       30.64S
ASHLAND        FAIR      -8 -12  83 S6        30.64F WCI -21
HAYWARD        FAIR      -7 -12  79 N6        30.60F WCI -20
SIREN          FAIR      -8 -13  78 CALM      30.61F
CUMBERLAND     FAIR      -4  -9  77 CALM      30.58F
RICE LAKE      FAIR      -2  -5  86 N5        30.61F WCI -12
CHETEK         FAIR      -3  -7  86 MISG      30.61F
LADYSMITH      FAIR      -2  -6  84 CALM      30.61S
EAU CLAIRE     FAIR       2  -1  88 NE5       30.60F WCI  -8
MENOMONIE      FAIR       2  -2  84 N3        30.60F
NEW RICHMOND   FAIR      -5  -9  81 N3        30.60F
OSCEOLA        FAIR      -1  -4  85 CALM      30.64F
$$

WIZ003>005-009-010-017-018-221000-
NORTH CENTRAL WISCONSIN

CITY           SKY/WX    TMP DP  RH WIND       PRES   REMARKS
MANITOWISH WTR FAIR     -10 -13  83 CALM      30.56F
ARBOR VITAE    FAIR      -2  -6  83 CALM      30.56F
WOODRUFF       FAIR      -2  -6  83 CALM      30.56F
RHINELANDER    FAIR       0  -4  83 N3        30.56F
EAGLE RIVER    FAIR      -7 -12  77 CALM      30.56F
LAND O LAKES   FAIR     -13 -18  78 CALM      30.57F
PHILLIPS       FAIR      -6 -10  86 CALM      30.56F
TOMAHAWK       FAIR      -5  -9  83 CALM      30.58F
MEDFORD        FAIR       0  -4  83 NE3       30.55F
MERRILL        FAIR       1  -2  85 CALM      30.58F
$$

WIZ029-030-035-036-043>047-221000-
CENTRAL WISCONSIN

CITY           SKY/WX    TMP DP  RH WIND       PRES   REMARKS
WAUSAU         FAIR       7   3  84 CALM      30.56F
MOSINEE        FAIR      10   5  79 CALM      30.58S
MARSHFIELD     FAIR      11   3  70 NE6       30.55F WCI   1
STEVENS POINT  FAIR      10   5  80 CALM      30.59F
WAUPACA        FAIR      19  11  73 CALM      30.62F
WAUTOMA        MOCLDY    17  11  77 E6        30.61F WCI   9
WISC RAPIDS    FAIR      14   6  70 NE3       30.59F
CAMP DOUGLAS   MOCLDY    17  13  81 E3        30.58F
$$

WIZ011>013-019>022-031-037>040-048>050-221000-
NORTHEAST WISCONSIN

CITY           SKY/WX    TMP DP  RH WIND       PRES   REMARKS
ANTIGO         MOCLDY     3  -1  83 N6        30.56F WCI  -8
SHAWANO        MOCLDY    17   9  71 E3        30.61F
OCONTO         FAIR      16  11  80 CALM      30.65S
STURGEON BAY   FAIR      17  12  80 N3        30.65F
GREEN BAY      FAIR      19  10  68 NE5       30.63F WCI  12
MANITOWOC      CLOUDY    21  13  71 N6        30.64F WCI  13
APPLETON       MOCLDY    19   7  58 NE6       30.59F WCI  11
CLINTONVILLE   FAIR      16   7  69 CALM      30.61F
OSHKOSH        CLOUDY    20  10  65 E6        30.60F WCI  12
$$

WIZ032>034-041-042-053>061-221000-
SOUTHWEST WISCONSIN

CITY           SKY/WX    TMP DP  RH WIND       PRES   REMARKS
LA CROSSE      CLOUDY    19  15  84 CALM      30.61F
SPARTA         CLOUDY    18  15  88 CALM      30.60F
VIROQUA        MOCLDY    20  17  91 E6        30.55S WCI  12
BOSCOBEL       CLOUDY    24  15  68 E5        30.61R WCI  18
PRAIRIE DU CHI CLOUDY    24  14  65 E5        30.60R WCI  18
PLATTEVILLE    MOCLDY    24  16  71 NE9       30.56S WCI  14
$$

WIZ056-057-062-063-064-067-068-221000-
SOUTH CENTRAL WISCONSIN

CITY           SKY/WX    TMP DP  RH WIND       PRES   REMARKS
REEDSBURG      CLOUDY    20  13  74 E3        30.60R
BARABOO/DELLS  CLOUDY    20  14  76 E6        30.59F WCI  12
LONE ROCK      CLOUDY    24  15  68 E8        30.61S WCI  15
MINERAL POINT  CLOUDY    27  18  69 E8        30.56R WCI  18
MADISON        CLOUDY    22  14  71 E9        30.59F WCI  12
MIDDLETON      CLOUDY    24  15  69 E10       30.59F WCI  13
WATERTOWN      CLOUDY    22  14  70 NE7       30.59F WCI  14
MONROE         CLOUDY    25  18  74 NE13      30.53F WCI  13
JANESVILLE     MOCLDY    27  19  74 NE7       30.55F WCI  19
$$

WIZ051-052-058>065-066-070>072-221000-
SOUTHEAST WISCONSIN

CITY           SKY/WX    TMP DP  RH WIND       PRES   REMARKS
MILWAUKEE      CLOUDY    29  21  72 NE8       30.59F WCI  21
WAUKESHA       FAIR      21  14  73 N7        30.59F WCI  13
MILWAUKEE/TIMM FAIR      23  14  68 N6        30.60F WCI  16
RACINE         FAIR      29  22  75 NE14      30.59F WCI  18
BURLINGTON     FAIR      25  17  73 N7        30.57F WCI  17
KENOSHA        FAIR      29  21  72 NE10      30.57F WCI  20
FOND DU LAC    CLOUDY    21  11  65 NE6       30.61F WCI  13
SHEBOYGAN      CLOUDY    22  14  71 N6        30.62F WCI  14
WEST BEND      CLOUDY    23  18  80 N3        30.60F
JUNEAU         CLOUDY    21  12  70 NE5       30.60F WCI  14
$$

LSZ147-162-221000-
LAKE SUPERIOR

STATION/POSITION TIME  TEMP    WIND        PRES    WAVE
                       AIR SEA DIR/SP/G            HT/PER
                 (UTC) (F)     (DEG/KT/KT) (MB)    (FT/S)
DEVILS ISLAND    0900   15     230/  7/  9 1038.5F
SAXON HARBOR     0830    3     190/  3/  5 1037.3F
$$

LMZ867-665-643>646-221000-
LAKE MICHIGAN

STATION/POSITION TIME  TEMP    WIND        PRES    WAVE
                       AIR SEA DIR/SP/G            HT/PER
                 (UTC) (F)     (DEG/KT/KT) (MB)    (FT/S)
NORTHPORT PIER   0903   20                 1037.6
KEWAUNEE LAKESHO 0900   20     340/  3/  4 1036.7
SHEBOYGAN LAKESH 0900   26      10/ 12/ 13 1037.9F
PORT WASHINGTON  0840   24     360/  3/  8 1037.3F
MILWAUKEE LAKESH 0900   30      50/ 13/ 14   N/A
KENOSHA   LAKESH 0900   30      40/ 14/ 16 1034.9
$$

TC  - TEMPERATURE IN CELSIUS
VSB - VISIBILITY IN STATUTE MILES
WCI - WIND CHILL INDEX
HX  - HEAT INDEX





USA.gov is the U.S. government's official web portal to all federal, state and local government web resources and services.